Weather History for Penn Yan, NY

Change the Weather History Date:

Wednesday, January 30, 2013

  Actual Average (KITH) Record (KITH)
Temperature  
Mean Temperature 56 °F -  
Max Temperature 61 °F 30 °F 59 °F (2013)
Min Temperature 50 °F 12 °F -11 °F (1965)
Degree Days  
Heating Degree Days 10    
Growing Degree Days 6 (Base 50)    
Moisture  
Dew Point 49 °F    
Average Humidity 79    
Maximum Humidity 86    
Minimum Humidity 72    
Precipitation  
Precipitation 0.16 in - - ()
Sea Level Pressure  
Sea Level Pressure 29.45 in    
Wind  
Wind Speed 14 mph (SSW)    
Max Wind Speed 23 mph    
Max Gust Speed 36 mph    
Visibility 9 miles    
Events Rain    
Averages and records for this station are not official NWS values.
T = Trace of Precipitation, MM = Missing Value Source: NWS Daily Summary

Daily Weather History Graph

Daily Weather History Graph

Search for Another Location

Airport:

Trip Planner

Search our weather history database for the weather conditions in past years. The results will help you decide how hot, cold, wet, or windy it might be!

Date:

Astronomy

Jan. 30, 2013 Rise Set
Actual Time 7:24 AM EST 5:19 PM EST
Civil Twilight 6:54 AM EST 5:49 PM EST
Nautical Twilight 6:20 AM EST 6:23 PM EST
Astronomical Twilight 5:47 AM EST 6:56 PM EST
Moon 9:22 PM EST (1/30) 8:45 AM EST (1/30)
Length of Visible Light 10h 55m
Length of Day
9h 55m
Waning Gibbous, 88% of the Moon is Illuminated
Jan 30
Waning Gibbous
Feb 3
Last Quarter
Feb 10
New
Feb 17
First Quarter
Feb 25
Full

Hourly Weather History & Observations

Time (EST) Temp. Dew Point Humidity Pressure Visibility Wind Dir Wind Speed Gust Speed Precip Events Conditions
12:53 AM 51.1 °F 46.9 °F 86% 29.80 in 8.0 mi South 11.5 mph - N/A   Clear
1:53 AM 51.1 °F 46.0 °F 83% 29.75 in 6.0 mi SSW 9.2 mph - N/A   Haze
2:53 AM 52.0 °F 46.9 °F 83% 29.70 in 7.0 mi SSW 15.0 mph 23.0 mph N/A   Clear
3:53 AM 53.1 °F 46.9 °F 80% 29.68 in 8.0 mi SSW 18.4 mph 25.3 mph N/A   Clear
4:53 AM 53.1 °F 46.0 °F 77% 29.65 in 9.0 mi SSW 16.1 mph 25.3 mph N/A   Clear
5:53 AM 50.0 °F 45.0 °F 83% 29.61 in 8.0 mi SW 13.8 mph - N/A   Clear
6:53 AM 50.0 °F 44.1 °F 80% 29.58 in 9.0 mi SW 10.4 mph - N/A   Clear
7:53 AM 50.0 °F 44.1 °F 80% 29.55 in 9.0 mi Variable 5.8 mph - N/A   Clear
8:53 AM 53.1 °F 46.9 °F 80% 29.52 in 9.0 mi SW 11.5 mph 20.7 mph N/A   Clear
9:53 AM 57.0 °F 48.9 °F 74% 29.47 in 10.0 mi SSW 15.0 mph 27.6 mph N/A   Clear
10:53 AM 57.9 °F 50.0 °F 75% 29.44 in 10.0 mi SSW 18.4 mph 32.2 mph N/A   Partly Cloudy
11:27 AM 59.0 °F 51.8 °F 77% 29.43 in 10.0 mi SSW 13.8 mph 20.7 mph N/A   Mostly Cloudy
11:53 AM 57.9 °F 50.0 °F 75% 29.43 in 10.0 mi SSW 21.9 mph 29.9 mph N/A   Mostly Cloudy
12:13 PM 57.2 °F 51.8 °F 82% 29.43 in 5.0 mi SSW 23.0 mph 33.4 mph 0.02 in Rain Light Rain
12:53 PM 57.9 °F 51.1 °F 78% 29.44 in 9.0 mi North - - 0.02 in   Mostly Cloudy
1:54 PM 61.0 °F 53.1 °F 75% 29.39 in - SSW 19.6 mph 28.8 mph N/A   Unknown
2:53 PM 59.0 °F 51.1 °F 75% 29.39 in 10.0 mi SSW 19.6 mph 25.3 mph 0.00 in   Mostly Cloudy
3:53 PM 60.1 °F 52.0 °F 75% 29.38 in 10.0 mi SSW 16.1 mph 27.6 mph 0.01 in Rain Light Rain
4:53 PM 60.1 °F 51.1 °F 72% 29.34 in 10.0 mi South 19.6 mph 35.7 mph 0.00 in   Overcast
5:53 PM 59.0 °F 50.0 °F 72% 29.34 in 10.0 mi SSW 21.9 mph 32.2 mph N/A   Overcast
6:53 PM 57.0 °F 50.0 °F 77% 29.32 in 10.0 mi SSW 17.3 mph 27.6 mph 0.00 in Rain Light Rain
7:53 PM 57.0 °F 48.9 °F 74% 29.30 in 10.0 mi SSW 19.6 mph 32.2 mph 0.00 in   Mostly Cloudy
8:53 PM 55.9 °F 50.0 °F 80% 29.25 in 10.0 mi South 19.6 mph 28.8 mph 0.02 in Rain Light Rain
9:53 PM 55.0 °F 50.0 °F 83% 29.21 in 9.0 mi South 12.7 mph 23.0 mph 0.04 in Rain Rain
10:53 PM 54.0 °F 50.0 °F 86% 29.16 in 10.0 mi South 11.5 mph 18.4 mph 0.04 in Rain Light Rain
11:53 PM 54.0 °F 50.0 °F 86% 29.09 in 10.0 mi South 8.1 mph - 0.03 in Rain Light Rain